TimeCST,TemperatureF,Dew PointF,Humidity,Sea Level PressureIn,VisibilityMPH,Wind Direction,Wind SpeedMPH,Gust SpeedMPH,PrecipitationIn,Events,Conditions,WindDirDegrees,DateUTC
12:52 AM,30.9,26.1,82,30.16,8.0,North,8.1,-,N/A,,Overcast,350,2013-02-27 06:52:00
1:52 AM,30.0,26.1,85,30.17,7.0,NNW,6.9,-,N/A,,Overcast,340,2013-02-27 07:52:00
2:28 AM,30.0,26.1,85,30.12,7.0,NNW,5.8,-,N/A,,Overcast,340,2013-02-27 08:28:00
2:52 AM,30.0,26.1,85,30.17,7.0,NNW,6.9,-,N/A,,Overcast,330,2013-02-27 08:52:00
3:03 AM,30.0,27.0,88,30.11,8.0,NNW,12.7,-,N/A,,Overcast,330,2013-02-27 09:03:00
3:50 AM,28.4,26.6,93,30.11,7.0,North,10.4,-,N/A,,Overcast,360,2013-02-27 09:50:00
3:52 AM,28.9,26.1,89,30.17,7.0,North,10.4,-,N/A,,Overcast,360,2013-02-27 09:52:00
4:52 AM,28.0,26.1,92,30.19,5.0,NNW,8.1,-,N/A,,Overcast,330,2013-02-27 10:52:00
5:52 AM,28.9,25.0,85,30.20,8.0,NNW,11.5,-,N/A,,Overcast,330,2013-02-27 11:52:00
6:52 AM,27.0,24.1,89,30.24,7.0,North,9.2,-,N/A,,Overcast,350,2013-02-27 12:52:00
7:52 AM,27.0,23.0,85,30.24,7.0,North,8.1,-,N/A,,Overcast,350,2013-02-27 13:52:00
8:38 AM,27.0,23.0,85,30.18,6.0,NNW,10.4,-,N/A,,Overcast,340,2013-02-27 14:38:00
8:52 AM,27.0,23.0,85,30.26,6.0,NNW,11.5,-,N/A,,Overcast,330,2013-02-27 14:52:00
9:21 AM,27.0,21.9,81,30.20,8.0,North,10.4,-,N/A,,Overcast,360,2013-02-27 15:21:00
9:52 AM,27.0,21.0,78,30.27,8.0,North,6.9,-,N/A,,Overcast,350,2013-02-27 15:52:00
10:02 AM,27.0,19.9,75,30.21,9.0,North,9.2,-,N/A,,Overcast,360,2013-02-27 16:02:00
10:52 AM,28.0,21.0,75,30.29,10.0,North,11.5,-,N/A,,Overcast,360,2013-02-27 16:52:00
11:18 AM,28.9,21.0,72,30.22,10.0,North,13.8,-,N/A,,Mostly Cloudy,360,2013-02-27 17:18:00
11:52 AM,30.9,21.9,69,30.28,10.0,NNW,13.8,-,N/A,,Mostly Cloudy,340,2013-02-27 17:52:00
12:05 PM,30.9,23.0,72,30.22,10.0,NNW,12.7,-,N/A,,Mostly Cloudy,340,2013-02-27 18:05:00
12:21 PM,30.9,21.9,69,30.22,10.0,North,12.7,-,N/A,,Overcast,360,2013-02-27 18:21:00
12:52 PM,30.9,23.0,72,30.29,10.0,North,13.8,-,N/A,,Overcast,350,2013-02-27 18:52:00
1:52 PM,30.0,23.0,75,30.30,10.0,NNW,15.0,-,N/A,,Overcast,340,2013-02-27 19:52:00
2:52 PM,30.9,24.1,76,30.29,10.0,North,11.5,-,N/A,,Overcast,350,2013-02-27 20:52:00
3:52 PM,28.9,23.0,78,30.31,10.0,NNE,12.7,-,N/A,,Overcast,30,2013-02-27 21:52:00
4:52 PM,30.0,23.0,75,30.31,10.0,North,11.5,-,N/A,,Overcast,10,2013-02-27 22:52:00
5:52 PM,28.9,21.9,75,30.32,10.0,North,10.4,-,N/A,,Overcast,10,2013-02-27 23:52:00
6:52 PM,28.0,21.9,78,30.33,10.0,North,9.2,-,N/A,,Overcast,360,2013-02-28 00:52:00
7:32 PM,27.0,21.9,81,30.27,10.0,North,10.4,-,N/A,,Overcast,10,2013-02-28 01:32:00
7:52 PM,26.6,21.2,80,30.27,10.0,North,9.2,-,N/A,,Overcast,10,2013-02-28 01:52:00
8:52 PM,26.1,21.0,81,30.35,10.0,North,10.4,-,N/A,,Overcast,360,2013-02-28 02:52:00
9:47 PM,24.8,19.4,80,30.28,10.0,North,10.4,-,N/A,,Overcast,360,2013-02-28 03:47:00
9:52 PM,24.1,19.0,81,30.36,10.0,North,9.2,-,N/A,,Overcast,10,2013-02-28 03:52:00
10:52 PM,23.0,18.0,81,30.36,10.0,NNW,10.4,-,N/A,,Overcast,340,2013-02-28 04:52:00
11:16 PM,23.0,18.0,81,30.27,10.0,North,8.1,-,N/A,,Overcast,350,2013-02-28 05:16:00
11:52 PM,23.0,18.0,81,30.36,10.0,North,8.1,-,N/A,,Overcast,350,2013-02-28 05:52:00